Torna al catalogo

SL-6 R/B(2)

AttivoHEO
NORAD 16070·ROCKET BODY·🇷🇺 Russia

Lanciato Sep 24, 1985 da Plesetsk Cosmodrome

Loading…

Prossimi Passaggi (prossime 24 ore)

TLE

AggiornatoSource: Space-Track

Epoca: Sep 14, 2026, 04:27 UTC

1 16070U 85084D   26257.18555057 -.00000261  00000-0  00000-0 0  9997
2 16070  71.4012  72.5908 5142650 347.2933 206.5157  2.03976950305180

Traccia SL-6 R/B(2) in tempo reale con AllMySat

Download on the App Store